Fayetteville, NC

10:37 PM EST on December 14, 2017 (GMT -0500)
Fayetteville Regional-Grannis

Weather History for KFAY - January, 2014

Change the Weather History Date:

Sunday, January 5, 2014

  Actual Average Record
Temperature  
Mean Temperature 52 °F 43 °F  
Max Temperature 66 °F 53 °F 78 °F (1950)
Min Temperature 37 °F 33 °F 10 °F (1920)
Degree Days  
Heating Degree Days 13 22  
Month to date heating degree days 118 110  
Since 1 July heating degree days 1131 1169  
Cooling Degree Days 0 0  
Month to date cooling degree days 0 0  
Year to date cooling degree days 0 0  
Moisture  
Dew Point 49 °F    
Average Humidity 80    
Maximum Humidity 100    
Minimum Humidity 59    
Precipitation  
Precipitation 0.05 in 0.09 in 0.73 in (1993)
Month to date precipitation 0.36 0.45  
Year to date precipitation 0.36 0.45  
Sea Level Pressure  
Sea Level Pressure 30.01 in    
Wind  
Wind Speed 7 mph (SSE)    
Max Wind Speed 16 mph    
Max Gust Speed 20 mph    
Visibility 7 miles    
Events Rain    
T = Trace of Precipitation, MM = Missing Value Source: NWS Daily Summary

Daily Weather History Graph

Daily Weather History Graph

Search for Another Location

Airport or City:

Trip Planner

Search our weather history database for the weather conditions in past years. The results will help you decide how hot, cold, wet, or windy it might be!

Date:

Astronomy

Jan. 05, 2014 Rise Set
Actual Time 7:24 AM EST 5:18 PM EST
Civil Twilight 6:56 AM EST 5:46 PM EST
Nautical Twilight 6:24 AM EST 6:17 PM EST
Astronomical Twilight 5:53 AM EST 6:48 PM EST
Moon 10:16 AM EST (1/5) 10:30 PM EST (1/5)
Length of Visible Light 10h 49m
Length of Day
9h 54m
Waxing Crescent, 24% of the Moon is Illuminated
Jan 5
Waxing Crescent
Jan 7
First Quarter
Jan 15
Full
Jan 24
Last Quarter
Jan 30
New

Hourly Weather History & Observations

Time (EST) Temp. Windchill Dew Point Humidity Pressure Visibility Wind Dir Wind Speed Gust Speed Precip Events Conditions
12:32 AM 37.4 °F 34.9 °F 26.6 °F 65% 30.25 in 10.0 mi NE 3.5 mph - N/A   Overcast
12:53 AM 37.9 °F 33.5 °F 26.1 °F 62% 30.22 in 10.0 mi NNE 5.8 mph - N/A   Mostly Cloudy
1:53 AM 37.9 °F 33.5 °F 26.1 °F 62% 30.23 in 10.0 mi North 5.8 mph - N/A   Mostly Cloudy
2:53 AM 39.0 °F 33.4 °F 27.0 °F 62% 30.21 in 10.0 mi NNE 8.1 mph - N/A   Overcast
3:53 AM 39.0 °F 34.0 °F 28.0 °F 65% 30.20 in 10.0 mi NNE 6.9 mph - N/A   Overcast
4:53 AM 39.0 °F 34.8 °F 28.0 °F 65% 30.19 in 10.0 mi NNE 5.8 mph - N/A   Overcast
5:45 AM 39.2 °F 35.9 °F 28.4 °F 65% 30.19 in 10.0 mi NNE 4.6 mph - N/A   Overcast
5:53 AM 39.9 °F 36.7 °F 28.9 °F 65% 30.18 in 10.0 mi North 4.6 mph - N/A   Overcast
6:53 AM 39.9 °F 35.1 °F 30.0 °F 68% 30.16 in 10.0 mi NNE 6.9 mph - N/A   Overcast
7:53 AM 41.0 °F 35.8 °F 30.9 °F 67% 30.16 in 10.0 mi NNE 8.1 mph - N/A   Overcast
8:53 AM 42.1 °F 38.4 °F 33.1 °F 70% 30.16 in 10.0 mi NNE 5.8 mph - N/A   Overcast
9:53 AM 46.0 °F 43.9 °F 37.0 °F 71% 30.13 in 10.0 mi NE 4.6 mph - N/A   Overcast
10:16 AM 51.8 °F - 42.8 °F 71% 30.12 in 10.0 mi ENE 4.6 mph - N/A   Scattered Clouds
10:53 AM 55.9 °F - 46.0 °F 69% 30.09 in 10.0 mi Calm Calm - N/A   Scattered Clouds
11:53 AM 63.0 °F - 53.1 °F 70% 30.06 in 10.0 mi ESE 6.9 mph - N/A   Mostly Cloudy
12:23 PM 64.4 °F - 55.4 °F 73% 30.05 in 10.0 mi SE 12.7 mph - N/A   Overcast
12:53 PM 64.9 °F - 57.0 °F 75% 30.00 in 10.0 mi SSE 10.4 mph - N/A   Overcast
1:10 PM 64.4 °F - 57.2 °F 77% 30.01 in 10.0 mi SSE 9.2 mph - N/A   Overcast
1:53 PM 64.9 °F - 57.9 °F 78% 29.98 in 10.0 mi SE 8.1 mph - N/A   Overcast
2:53 PM 64.0 °F - 60.1 °F 87% 29.96 in 10.0 mi SSE 10.4 mph - 0.00 in   Overcast
3:35 PM 62.6 °F - 60.8 °F 94% 29.98 in 2.5 mi South 5.8 mph - 0.02 in Rain Light Rain
3:39 PM 62.6 °F - 60.8 °F 94% 29.97 in 1.8 mi SSE 6.9 mph - 0.03 in Rain Light Rain
3:48 PM 62.6 °F - 60.8 °F 94% 29.96 in 1.5 mi ESE 13.8 mph - 0.04 in Rain Light Rain
3:53 PM 63.0 °F - 61.0 °F 93% 29.95 in 1.8 mi ESE 15.0 mph - 0.04 in Rain Light Rain
3:56 PM 62.6 °F - 60.8 °F 94% 29.96 in 3.0 mi ESE 13.8 mph - 0.00 in Rain Light Rain
4:53 PM 61.0 °F - 59.0 °F 93% 29.94 in 10.0 mi SSE 5.8 mph - 0.01 in   Overcast
5:53 PM 60.1 °F - 57.9 °F 93% 29.94 in 10.0 mi SSW 5.8 mph - N/A   Scattered Clouds
6:50 PM 60.8 °F - 59.0 °F 94% 29.94 in 10.0 mi South 5.8 mph - N/A   Overcast
6:53 PM 60.1 °F - 59.0 °F 96% 29.93 in 10.0 mi SSW 5.8 mph - N/A   Overcast
7:07 PM 60.8 °F - 59.0 °F 94% 29.93 in 10.0 mi SSW 5.8 mph - N/A   Overcast
7:22 PM 60.8 °F - 59.0 °F 94% 29.93 in 8.0 mi SW 5.8 mph - N/A   Overcast
7:32 PM 60.8 °F - 57.2 °F 88% 29.94 in 7.0 mi SW 8.1 mph - N/A   Overcast
7:53 PM 59.0 °F - 57.0 °F 93% 29.93 in 5.0 mi WSW 12.7 mph - N/A   Overcast
8:25 PM 55.4 °F - 53.6 °F 94% 29.93 in 2.0 mi WSW 11.5 mph - N/A   Overcast
8:53 PM 55.0 °F - 53.1 °F 93% 29.92 in 1.8 mi WSW 5.8 mph - N/A   Overcast
9:08 PM 53.6 °F - 53.6 °F 100% 29.93 in 2.5 mi SW 6.9 mph - N/A   Overcast
9:15 PM 53.6 °F - 53.6 °F 100% 29.92 in 4.0 mi SW 5.8 mph - N/A   Overcast
9:26 PM 53.6 °F - 53.6 °F 100% 29.92 in 3.0 mi SW 4.6 mph - N/A   Overcast
9:53 PM 54.0 °F - 53.1 °F 97% 29.89 in 4.0 mi South 4.6 mph - N/A   Overcast
10:45 PM 53.6 °F - 53.6 °F 100% 29.86 in 4.0 mi SSE 8.1 mph - N/A   Overcast
10:53 PM 54.0 °F - 53.1 °F 97% 29.84 in 3.0 mi South 6.9 mph - N/A   Overcast
11:01 PM 55.4 °F - 53.6 °F 94% 29.85 in 2.5 mi SSE 8.1 mph - N/A   Overcast
11:16 PM 55.4 °F - 53.6 °F 94% 29.84 in 1.5 mi South 6.9 mph - N/A   Overcast
11:53 PM 55.0 °F - 54.0 °F 96% 29.81 in 1.0 mi SSW 5.8 mph - N/A   Mist